Hourly Data Report for April 20, 2021

TORONTO CITY
ONTARIO
Current Station Operator: ECCC - MSC

43°40'00.000" N
79°24'00.000" W
112.50 m
6158355
71508
XTO

Download Data

Hourly Data (April 2021)
Hourly Data Report for April 20, 2021
TIME
LST
Temp Definition
°C
Dew Point Definition
°C
Rel Hum Definition
%
Precip. Amount Definition
mm

Wind Dir Definition
10's deg

Wind Spd Definition
km/h
Visibility Definition
km
Stn Press Definition
kPa
Hmdx Definition


Wind Chill Definition


Weather Definition


00:00 6.8 3.7 81 0.0       99.55     LegendNANA
01:00 6.6 3.9 83 0.0       99.59     LegendNANA
02:00 5.5 1.8 77 0.1       99.61     LegendNANA
03:00 5.4 1.4 75 0.0       99.64     LegendNANA
04:00 5.7 0.1 67 0.0       99.65     LegendNANA
05:00 4.6 -1.2 66 0.0       99.73     LegendNANA
06:00 3.6 -3.3 60 0.0       99.83     LegendNANA
07:00 3.8 -3.1 60 0.0       99.91     LegendNANA
08:00 4.1 -4.5 53 0.0       99.98     LegendNANA
09:00 5.3 -3.8 52 0.0       100.01     LegendNANA
10:00 5.5 -4.3 49 0.0       100.06     LegendNANA
11:00 5.9 -3.4 51 0.0       100.11     LegendNANA
12:00 5.8 -3.5 51 0.0       100.11     LegendNANA
13:00 5.7 -4.0 50 0.0       100.12     LegendNANA
14:00 5.4 -5.0 47 0.0       100.17     LegendNANA
15:00 5.5 -4.3 49 0.0       100.16     LegendNANA
16:00 4.4 -3.8 55 0.0       100.20     LegendNANA
17:00 3.7 -2.5 64 0.0       100.25     LegendNANA
18:00 3.4 -2.5 65 0.0       100.25     LegendNANA
19:00 2.3 -1.1 78 0.1       100.26     LegendNANA
20:00 2.5 -1.4 76 0.0       100.25     LegendNANA
21:00 3.2 -5.0 55 0.0       100.21     LegendNANA
22:00 2.4 -3.5 65 0.0       100.18     LegendNANA
23:00 1.1 -1.1 85 0.2       100.11     LegendNANA

Notes on Data Quality.

Legend

  • E = Estimated
  • M = Missing
  • NA = Not Available*
  • [empty] = Indicates an unobserved value
Date modified: